sat.trackr.live / text

‹ back to catalog

STRIX-3

NORAD 59224 · 2024-047A

PAYLOAD ACTIVE UNKNOWN

§ Identity

Operator
Country
JPN
Launch date
2024-03-12
Launch site
RLLB
Launch vehicle
Mass (kg)
RCS (m²)

External: N2YO · Heavens-Above · Gunter

§ Orbital elements

Epoch: 2026-05-25T04:34:37.053696Z

Period
94.80 min
Inclination
97.6615°
Eccentricity
0.0014638
Mean motion
15.18941459 rev/d
Perigee alt
499.0 km
Apogee alt
519.1 km
Semi-major
6,887.2 km
B*
3.7719e-4
RAAN
120.5361°
Arg perigee
135.9749°
Mean anomaly
224.2653°
Rev number
12,125

§ Raw data

STRIX-31 59224U 24047A   26145.19070664  .00007832  00000+0  37719-3 0  99992 59224  97.6615 120.5361 0014638 135.9749 224.2653 15.18941459121258

JSON: /api/v1/satellites/59224 · /tle

For live sub-satellite position, see the globe view (requires WebGL).

§ Visibility from observer

Set your observer location to see the next 7 days of passes ≥ 10°. The values pass through the URL so the page stays shareable.

No JS? Fill the form by hand. The geolocation button needs JavaScript.

§ Radio — SatNOGS DB

ModeDescriptionDownlinkUplink
FM Mode S 2 2.277 GHz
FM Mode S 3 2.228 GHz

2 transmitters · refreshed weekly from db.satnogs.org